FIN0701 EFHK-ULLI

Flight info

Callsign FIN0701
Flight time 0h 36m
Altitude 25000
Route ARVEP T82 RATMU DCT OLEMA L24 AKARU AKARU1B
Aircraft A320/M-SDE3FGHIRWY/LB1

Departure

Time 2026-04-23 16:37
Airport Helsinki Vantaa Airport (EFHK)

Arrival

Time 2026-04-23 17:14
Airport Pulkovo Airport (ULLI)
Time Latitude Longitude Altitude Speed Heading
2026-04-23 16:18 60.31907 24.96620 189 ft 0 kts 137°
2026-04-23 16:26 60.31912 24.96610 189 ft 2 kts 137°
2026-04-23 16:26 60.31925 24.96594 189 ft 2 kts 157°
2026-04-23 16:26 60.31939 24.96584 189 ft 2 kts 171°
2026-04-23 16:26 60.31954 24.96583 189 ft 2 kts 187°
2026-04-23 16:27 60.31968 24.96590 190 ft 2 kts 202°
2026-04-23 16:27 60.31982 24.96604 190 ft 2 kts 218°
2026-04-23 16:27 60.31988 24.96615 189 ft 1 kts 226°
2026-04-23 16:27 60.31991 24.96622 190 ft 0 kts 227°
2026-04-23 16:30 60.31990 24.96621 189 ft 0 kts 227°
2026-04-23 16:30 60.31974 24.96587 189 ft 5 kts 226°
2026-04-23 16:30 60.31939 24.96512 189 ft 10 kts 227°
2026-04-23 16:30 60.31884 24.96389 189 ft 12 kts 229°
2026-04-23 16:31 60.31852 24.96228 189 ft 13 kts 276°
2026-04-23 16:31 60.31893 24.96091 189 ft 8 kts 319°
2026-04-23 16:31 60.31922 24.95979 189 ft 9 kts 264°
2026-04-23 16:31 60.31881 24.95857 189 ft 12 kts 229°
2026-04-23 16:32 60.31789 24.95651 189 ft 23 kts 227°
2026-04-23 16:32 60.31681 24.95413 189 ft 23 kts 228°
2026-04-23 16:32 60.31572 24.95173 189 ft 23 kts 227°
2026-04-23 16:32 60.31465 24.94937 189 ft 22 kts 228°
2026-04-23 16:33 60.31356 24.94698 189 ft 22 kts 227°
2026-04-23 16:33 60.31250 24.94463 189 ft 22 kts 227°
2026-04-23 16:33 60.31144 24.94229 189 ft 22 kts 229°
2026-04-23 16:33 60.31083 24.94097 189 ft 8 kts 227°
2026-04-23 16:34 60.31041 24.94008 189 ft 9 kts 227°
2026-04-23 16:34 60.31030 24.93882 189 ft 10 kts 295°
2026-04-23 16:34 60.31045 24.93836 189 ft 0 kts 308°
2026-04-23 16:35 60.31046 24.93832 189 ft 3 kts 308°
2026-04-23 16:35 60.31116 24.93730 189 ft 17 kts 347°
2026-04-23 16:35 60.31181 24.93759 189 ft 0 kts 43°
2026-04-23 16:37 60.31223 24.93846 189 ft 34 kts 46°
2026-04-23 16:37 60.31564 24.94591 190 ft 108 kts 48°
2026-04-23 16:37 60.32204 24.96014 218 ft 162 kts 46°
2026-04-23 16:37 60.32948 24.97735 841 ft 165 kts 45°
2026-04-23 16:38 60.33707 24.99413 1627 ft 163 kts 44°
2026-04-23 16:38 60.34478 25.01072 2266 ft 168 kts 44°
2026-04-23 16:38 60.35313 25.02879 2672 ft 183 kts 44°
2026-04-23 16:38 60.36207 25.04832 3074 ft 200 kts 45°
2026-04-23 16:39 60.37179 25.06969 3481 ft 217 kts 45°
2026-04-23 16:39 60.38255 25.09350 3811 ft 240 kts 47°
2026-04-23 16:39 60.39098 25.12413 4313 ft 261 kts 75°
2026-04-23 16:39 60.39048 25.16132 5029 ft 274 kts 105°
2026-04-23 16:40 60.38280 25.19634 5893 ft 277 kts 114°
2026-04-23 16:40 60.37454 25.23168 6699 ft 281 kts 107°
2026-04-23 16:40 60.36971 25.26940 7476 ft 282 kts 98°
2026-04-23 16:40 60.36618 25.30867 8261 ft 286 kts 96°
2026-04-23 16:41 60.36269 25.34813 9032 ft 290 kts 97°
2026-04-23 16:41 60.35899 25.38793 9829 ft 293 kts 97°
2026-04-23 16:41 60.35502 25.42849 10531 ft 302 kts 97°
2026-04-23 16:41 60.35068 25.47135 10970 ft 318 kts 97°
2026-04-23 16:42 60.34612 25.51577 11360 ft 335 kts 97°
2026-04-23 16:42 60.34119 25.56303 11794 ft 347 kts 98°
2026-04-23 16:42 60.33610 25.61045 12450 ft 352 kts 97°
2026-04-23 16:42 60.33084 25.65869 13152 ft 356 kts 97°
2026-04-23 16:43 60.32550 25.70785 13789 ft 359 kts 97°
2026-04-23 16:43 60.32019 25.75686 14383 ft 362 kts 96°
2026-04-23 16:43 60.31482 25.80660 14967 ft 367 kts 96°
2026-04-23 16:43 60.30934 25.85761 15566 ft 372 kts 95°
2026-04-23 16:44 60.30384 25.90816 16161 ft 377 kts 95°
2026-04-23 16:44 60.29813 25.96020 16757 ft 381 kts 95°
2026-04-23 16:44 60.29239 26.01261 17331 ft 384 kts 95°
2026-04-23 16:44 60.28666 26.06480 17879 ft 388 kts 94°
2026-04-23 16:45 60.28077 26.11891 18430 ft 391 kts 95°
2026-04-23 16:45 60.27477 26.17260 18943 ft 395 kts 94°
2026-04-23 16:45 60.26870 26.22624 19452 ft 399 kts 94°
2026-04-23 16:45 60.26254 26.28077 19962 ft 402 kts 94°
2026-04-23 16:46 60.25631 26.33594 20461 ft 406 kts 94°
2026-04-23 16:46 60.25019 26.39059 20943 ft 408 kts 92°
2026-04-23 16:46 60.24502 26.44679 21428 ft 409 kts 90°
2026-04-23 16:46 60.24073 26.50291 21896 ft 409 kts 87°
2026-04-23 16:47 60.23806 26.55975 22360 ft 407 kts 83°
2026-04-23 16:47 60.23715 26.61601 22810 ft 406 kts 80°
2026-04-23 16:47 60.23703 26.67293 23254 ft 409 kts 80°
2026-04-23 16:47 60.23700 26.73091 23676 ft 412 kts 80°
2026-04-23 16:48 60.23693 26.78836 24093 ft 416 kts 80°
2026-04-23 16:48 60.23680 26.84693 24514 ft 419 kts 80°
2026-04-23 16:48 60.23661 26.90579 24833 ft 421 kts 80°
2026-04-23 16:48 60.23637 26.96467 24912 ft 421 kts 79°
2026-04-23 16:49 60.23620 27.00190 24953 ft 421 kts 79°
2026-04-23 16:49 60.23579 27.08078 24970 ft 420 kts 79°
2026-04-23 16:49 60.23547 27.14015 24947 ft 419 kts 79°
2026-04-23 16:49 60.23514 27.19795 24934 ft 419 kts 79°
2026-04-23 16:50 60.23479 27.25642 24925 ft 418 kts 79°
2026-04-23 16:50 60.23440 27.31488 24896 ft 417 kts 79°
2026-04-23 16:50 60.23399 27.37321 24864 ft 417 kts 79°
2026-04-23 16:50 60.23355 27.43088 24848 ft 417 kts 79°
2026-04-23 16:51 60.23264 27.48930 24839 ft 421 kts 82°
2026-04-23 16:51 60.23066 27.54762 24840 ft 422 kts 82°
2026-04-23 16:51 60.22850 27.60636 24845 ft 422 kts 82°
2026-04-23 16:51 60.22628 27.66498 24847 ft 421 kts 83°
2026-04-23 16:52 60.22405 27.72385 24849 ft 422 kts 83°
2026-04-23 16:52 60.22179 27.78273 24851 ft 422 kts 83°
2026-04-23 16:52 60.21952 27.84144 24852 ft 421 kts 83°
2026-04-23 16:52 60.21726 27.89940 24853 ft 421 kts 83°
2026-04-23 16:53 60.21495 27.95805 24854 ft 420 kts 83°
2026-04-23 16:53 60.21264 28.01603 24853 ft 420 kts 83°
2026-04-23 16:53 60.21028 28.07461 24851 ft 420 kts 83°
2026-04-23 16:53 60.20792 28.13279 24849 ft 420 kts 83°
2026-04-23 16:54 60.20551 28.19137 24849 ft 420 kts 83°
2026-04-23 16:54 60.20311 28.24928 24848 ft 420 kts 83°
2026-04-23 16:54 60.20065 28.30798 24847 ft 420 kts 83°
2026-04-23 16:54 60.19817 28.36639 24846 ft 420 kts 83°
2026-04-23 16:55 60.19570 28.42391 24844 ft 420 kts 83°
2026-04-23 16:55 60.19316 28.48245 24844 ft 420 kts 83°
2026-04-23 16:55 60.19059 28.54096 24844 ft 420 kts 83°
2026-04-23 16:55 60.18801 28.59907 24741 ft 420 kts 83°
2026-04-23 16:56 60.18431 28.65730 24510 ft 422 kts 88°
2026-04-23 16:56 60.17938 28.71554 24199 ft 423 kts 88°
2026-04-23 16:56 60.17433 28.77313 23739 ft 420 kts 89°
2026-04-23 16:56 60.16926 28.83029 23249 ft 417 kts 89°
2026-04-23 16:57 60.16415 28.88806 22739 ft 415 kts 89°
2026-04-23 16:57 60.15926 28.94316 22214 ft 412 kts 89°
2026-04-23 16:57 60.15417 29.00029 21669 ft 409 kts 89°
2026-04-23 16:57 60.14913 29.05653 21154 ft 404 kts 89°
2026-04-23 16:58 60.14417 29.11163 20659 ft 400 kts 89°
2026-04-23 16:58 60.13920 29.16646 20172 ft 396 kts 90°
2026-04-23 16:58 60.13434 29.21979 19699 ft 392 kts 90°
2026-04-23 16:58 60.12944 29.27340 19212 ft 389 kts 90°
2026-04-23 16:59 60.12460 29.32622 18743 ft 385 kts 90°
2026-04-23 16:59 60.11977 29.37867 18290 ft 381 kts 90°
2026-04-23 16:59 60.11500 29.43022 17838 ft 377 kts 91°
2026-04-23 16:59 60.11025 29.48132 17387 ft 373 kts 91°
2026-04-23 17:00 60.10550 29.53223 16950 ft 370 kts 91°
2026-04-23 17:00 60.10078 29.58258 16507 ft 366 kts 91°
2026-04-23 17:00 60.09624 29.63097 16060 ft 364 kts 91°
2026-04-23 17:00 60.09148 29.68152 15587 ft 361 kts 92°
2026-04-23 17:01 60.08683 29.73056 15122 ft 357 kts 92°
2026-04-23 17:01 60.08223 29.77871 14663 ft 353 kts 93°
2026-04-23 17:01 60.07758 29.82723 14196 ft 349 kts 93°
2026-04-23 17:01 60.07306 29.87424 13737 ft 346 kts 93°
2026-04-23 17:02 60.07003 29.90554 13432 ft 345 kts 93°
2026-04-23 17:02 60.06403 29.96691 13119 ft 327 kts 93°
2026-04-23 17:02 60.05974 30.01038 12967 ft 314 kts 93°
2026-04-23 17:02 60.05506 30.05238 12812 ft 304 kts 97°
2026-04-23 17:03 60.04905 30.09317 12452 ft 301 kts 99°
2026-04-23 17:03 60.04279 30.13287 12088 ft 298 kts 100°
2026-04-23 17:03 60.03665 30.17153 11741 ft 293 kts 100°
2026-04-23 17:03 60.03040 30.21055 11392 ft 289 kts 101°
2026-04-23 17:04 60.02431 30.24834 11055 ft 285 kts 101°
2026-04-23 17:04 60.01836 30.28543 10723 ft 281 kts 100°
2026-04-23 17:04 60.01242 30.32243 10393 ft 278 kts 100°
2026-04-23 17:04 60.00658 30.35901 10068 ft 276 kts 100°
2026-04-23 17:05 60.00079 30.39532 9747 ft 273 kts 101°
2026-04-23 17:05 59.99448 30.43042 9346 ft 277 kts 111°
2026-04-23 17:05 59.98179 30.46122 8650 ft 296 kts 134°
2026-04-23 17:05 59.96583 30.48662 8228 ft 296 kts 138°
2026-04-23 17:06 59.94973 30.51141 7846 ft 292 kts 137°
2026-04-23 17:06 59.93400 30.53673 7442 ft 290 kts 136°
2026-04-23 17:06 59.91866 30.56252 7044 ft 286 kts 135°
2026-04-23 17:06 59.90379 30.58820 6477 ft 282 kts 134°
2026-04-23 17:07 59.88934 30.61354 5765 ft 281 kts 134°
2026-04-23 17:07 59.87519 30.63848 5045 ft 279 kts 134°
2026-04-23 17:07 59.86092 30.66365 4483 ft 271 kts 135°
2026-04-23 17:07 59.84703 30.68810 4107 ft 262 kts 135°
2026-04-23 17:08 59.83361 30.71166 3786 ft 261 kts 136°
2026-04-23 17:08 59.81826 30.73038 3433 ft 264 kts 165°
2026-04-23 17:08 59.80013 30.72900 3120 ft 261 kts 203°
2026-04-23 17:08 59.78581 30.70902 2833 ft 252 kts 236°
2026-04-23 17:09 59.77734 30.67941 2653 ft 241 kts 248°
2026-04-23 17:09 59.77024 30.65066 2632 ft 226 kts 247°
2026-04-23 17:09 59.76332 30.62382 2610 ft 216 kts 247°
2026-04-23 17:09 59.75650 30.59824 2567 ft 204 kts 247°
2026-04-23 17:10 59.75047 30.57327 2510 ft 196 kts 264°
2026-04-23 17:10 59.75049 30.54752 2515 ft 187 kts 287°
2026-04-23 17:10 59.75401 30.52276 2526 ft 183 kts 295°
2026-04-23 17:10 59.75805 30.49985 2471 ft 168 kts 294°
2026-04-23 17:11 59.76148 30.47880 2234 ft 155 kts 293°
2026-04-23 17:11 59.76445 30.45915 1985 ft 144 kts 293°
2026-04-23 17:11 59.76710 30.44108 1767 ft 131 kts 293°
2026-04-23 17:11 59.76956 30.42413 1579 ft 126 kts 293°
2026-04-23 17:12 59.77199 30.40749 1420 ft 126 kts 292°
2026-04-23 17:12 59.77441 30.39069 1256 ft 126 kts 291°
2026-04-23 17:12 59.77684 30.37391 1088 ft 127 kts 291°
2026-04-23 17:12 59.77932 30.35713 908 ft 127 kts 290°
2026-04-23 17:13 59.78179 30.34027 731 ft 128 kts 289°
2026-04-23 17:13 59.78427 30.32350 546 ft 128 kts 289°
2026-04-23 17:13 59.78682 30.30662 365 ft 128 kts 289°
2026-04-23 17:13 59.78932 30.28981 185 ft 127 kts 289°
2026-04-23 17:14 59.79180 30.27309 85 ft 124 kts 289°
2026-04-23 17:14 59.79348 30.26192 83 ft 41 kts 288°
2026-04-23 17:14 59.79416 30.25741 83 ft 32 kts 289°
2026-04-23 17:14 59.79480 30.25478 83 ft 12 kts 29°
2026-04-23 17:15 59.79507 30.25647 83 ft 13 kts 77°
2026-04-23 17:15 59.79515 30.25709 83 ft 0 kts 76°
2026-04-23 17:15 59.79515 30.25710 83 ft 0 kts 76°
2026-04-23 17:16 59.79527 30.25807 83 ft 10 kts 76°
2026-04-23 17:16 59.79543 30.25956 83 ft 11 kts 85°
2026-04-23 17:16 59.79533 30.26128 83 ft 13 kts 101°
2026-04-23 17:16 59.79567 30.26265 83 ft 13 kts 16°
2026-04-23 17:17 59.79661 30.26322 83 ft 14 kts 17°
2026-04-23 17:17 59.79762 30.26385 84 ft 15 kts 18°
2026-04-23 17:17 59.79867 30.26445 84 ft 16 kts 15°
2026-04-23 17:17 59.79976 30.26509 84 ft 16 kts 17°
2026-04-23 17:18 59.80039 30.26793 84 ft 4 kts 107°
2026-04-23 17:18 59.80033 30.26834 84 ft 0 kts 104°